Time,TemperatureF,DewpointF,PressureIn,WindDirection,WindDirectionDegrees,WindSpeedMPH,WindSpeedGustMPH,Humidity,HourlyPrecipIn,Conditions,Clouds,dailyrainin,SoftwareType,DateUTC
2013-02-07 00:01:00,34.0,19.0,-100.00,NW,311,2.0,9.0,53,0.00,,,0.00,,2013-02-07 07:01:00,
2013-02-07 00:11:00,34.0,19.0,-100.00,NW,311,2.0,9.0,53,0.00,,,0.00,,2013-02-07 07:11:00,
2013-02-07 00:22:00,34.0,19.0,-100.00,NW,311,2.0,9.0,53,0.00,,,0.00,,2013-02-07 07:22:00,
2013-02-07 00:32:00,34.0,19.0,-100.00,NW,311,2.0,9.0,53,0.00,,,0.00,,2013-02-07 07:32:00,
2013-02-07 00:40:00,34.0,18.0,-100.00,NW,321,3.0,6.0,52,0.00,,,0.00,,2013-02-07 07:40:00,
2013-02-07 01:01:00,34.0,18.0,-100.00,NW,321,3.0,6.0,52,0.00,,,0.00,,2013-02-07 08:01:00,
2013-02-07 01:11:00,34.0,18.0,-100.00,NW,321,3.0,6.0,52,0.00,,,0.00,,2013-02-07 08:11:00,
2013-02-07 01:21:00,34.0,18.0,-100.00,NW,321,3.0,6.0,52,0.00,,,0.00,,2013-02-07 08:21:00,
2013-02-07 01:32:00,34.0,18.0,-100.00,NW,321,3.0,6.0,52,0.00,,,0.00,,2013-02-07 08:32:00,
2013-02-07 01:40:00,32.0,19.0,-100.00,WNW,300,2.0,7.0,57,0.00,,,0.00,,2013-02-07 08:40:00,
2013-02-07 02:02:00,32.0,19.0,-100.00,WNW,300,2.0,7.0,57,0.00,,,0.00,,2013-02-07 09:02:00,
2013-02-07 02:11:00,32.0,19.0,-100.00,WNW,300,2.0,7.0,57,0.00,,,0.00,,2013-02-07 09:11:00,
2013-02-07 02:21:00,32.0,19.0,-100.00,WNW,300,2.0,7.0,57,0.00,,,0.00,,2013-02-07 09:21:00,
2013-02-07 02:32:00,32.0,19.0,-100.00,WNW,300,2.0,7.0,57,0.00,,,0.00,,2013-02-07 09:32:00,
2013-02-07 02:40:00,30.0,18.0,-100.00,WNW,284,3.0,7.0,61,0.00,,,0.00,,2013-02-07 09:40:00,
2013-02-07 03:02:00,30.0,18.0,-100.00,WNW,284,3.0,7.0,61,0.00,,,0.00,,2013-02-07 10:02:00,
2013-02-07 03:11:00,30.0,18.0,-100.00,WNW,284,3.0,7.0,61,0.00,,,0.00,,2013-02-07 10:11:00,
2013-02-07 03:22:00,30.0,18.0,-100.00,WNW,284,3.0,7.0,61,0.00,,,0.00,,2013-02-07 10:22:00,
2013-02-07 03:32:00,30.0,18.0,-100.00,WNW,284,3.0,7.0,61,0.00,,,0.00,,2013-02-07 10:32:00,
2013-02-07 03:40:00,29.0,19.0,-100.00,WNW,298,1.0,6.0,65,0.00,,,0.00,,2013-02-07 10:40:00,
2013-02-07 04:01:00,29.0,19.0,-100.00,WNW,298,1.0,6.0,65,0.00,,,0.00,,2013-02-07 11:01:00,
2013-02-07 04:11:00,29.0,19.0,-100.00,WNW,298,1.0,6.0,65,0.00,,,0.00,,2013-02-07 11:11:00,
2013-02-07 04:23:00,29.0,19.0,-100.00,WNW,298,1.0,6.0,65,0.00,,,0.00,,2013-02-07 11:23:00,
2013-02-07 04:32:00,29.0,19.0,-100.00,WNW,298,1.0,6.0,65,0.00,,,0.00,,2013-02-07 11:32:00,
2013-02-07 04:40:00,31.0,20.0,-100.00,NNW,331,3.0,7.0,63,0.00,,,0.00,,2013-02-07 11:40:00,
2013-02-07 05:02:00,31.0,20.0,-100.00,NNW,331,3.0,7.0,63,0.00,,,0.00,,2013-02-07 12:02:00,
2013-02-07 05:11:00,31.0,20.0,-100.00,NNW,331,3.0,7.0,63,0.00,,,0.00,,2013-02-07 12:11:00,
2013-02-07 05:22:00,31.0,20.0,-100.00,NNW,331,3.0,7.0,63,0.00,,,0.00,,2013-02-07 12:22:00,
2013-02-07 05:32:00,31.0,20.0,-100.00,NNW,331,3.0,7.0,63,0.00,,,0.00,,2013-02-07 12:32:00,
2013-02-07 05:40:00,34.0,20.0,-100.00,NW,313,3.0,9.0,57,0.00,,,0.00,,2013-02-07 12:40:00,
2013-02-07 06:03:00,34.0,20.0,-100.00,NW,313,3.0,9.0,57,0.00,,,0.00,,2013-02-07 13:03:00,
2013-02-07 06:12:00,34.0,20.0,-100.00,NW,313,3.0,9.0,57,0.00,,,0.00,,2013-02-07 13:12:00,
2013-02-07 06:22:00,34.0,20.0,-100.00,NW,313,3.0,9.0,57,0.00,,,0.00,,2013-02-07 13:22:00,
2013-02-07 06:32:00,34.0,20.0,-100.00,NW,313,3.0,9.0,57,0.00,,,0.00,,2013-02-07 13:32:00,
2013-02-07 06:40:00,31.0,20.0,-100.00,NNW,346,1.0,7.0,64,0.00,,,0.00,,2013-02-07 13:40:00,
2013-02-07 07:01:00,31.0,20.0,-100.00,NNW,346,1.0,7.0,64,0.00,,,0.00,,2013-02-07 14:01:00,
2013-02-07 07:11:00,31.0,20.0,-100.00,NNW,346,1.0,7.0,64,0.00,,,0.00,,2013-02-07 14:11:00,
2013-02-07 07:22:00,31.0,20.0,-100.00,NNW,346,1.0,7.0,64,0.00,,,0.00,,2013-02-07 14:22:00,
2013-02-07 07:32:00,31.0,20.0,-100.00,NNW,346,1.0,7.0,64,0.00,,,0.00,,2013-02-07 14:32:00,
2013-02-07 07:40:00,32.0,21.0,-100.00,SW,216,3.0,6.0,63,0.00,,,0.00,,2013-02-07 14:40:00,
2013-02-07 08:02:00,32.0,21.0,-100.00,SW,216,3.0,6.0,63,0.00,,,0.00,,2013-02-07 15:02:00,
2013-02-07 08:11:00,32.0,21.0,-100.00,SW,216,3.0,6.0,63,0.00,,,0.00,,2013-02-07 15:11:00,
2013-02-07 08:22:00,32.0,21.0,-100.00,SW,216,3.0,6.0,63,0.00,,,0.00,,2013-02-07 15:22:00,
2013-02-07 08:32:00,32.0,21.0,-100.00,SW,216,3.0,6.0,63,0.00,,,0.00,,2013-02-07 15:32:00,
2013-02-07 08:40:00,40.0,24.0,-100.00,ESE,107,3.0,7.0,52,0.00,,,0.00,,2013-02-07 15:40:00,
2013-02-07 09:01:00,40.0,24.0,-100.00,ESE,107,3.0,7.0,52,0.00,,,0.00,,2013-02-07 16:01:00,
2013-02-07 09:40:00,40.0,23.0,-100.00,North,350,6.0,11.0,50,0.00,,,0.00,,2013-02-07 16:40:00,
2013-02-07 10:01:00,40.0,23.0,-100.00,North,350,6.0,11.0,50,0.00,,,0.00,,2013-02-07 17:01:00,
2013-02-07 10:11:00,40.0,23.0,-100.00,North,350,6.0,11.0,50,0.00,,,0.00,,2013-02-07 17:11:00,
2013-02-07 10:21:00,40.0,23.0,-100.00,North,350,6.0,11.0,50,0.00,,,0.00,,2013-02-07 17:21:00,
2013-02-07 10:32:00,40.0,23.0,-100.00,North,350,6.0,11.0,50,0.00,,,0.00,,2013-02-07 17:32:00,
2013-02-07 10:40:00,44.0,22.0,-100.00,NNE,30,4.0,10.0,41,0.00,,,0.00,,2013-02-07 17:40:00,
2013-02-07 11:02:00,44.0,22.0,-100.00,NNE,30,4.0,10.0,41,0.00,,,0.00,,2013-02-07 18:02:00,
2013-02-07 11:11:00,44.0,22.0,-100.00,NNE,30,4.0,10.0,41,0.00,,,0.00,,2013-02-07 18:11:00,
2013-02-07 11:23:00,44.0,22.0,-100.00,NNE,30,4.0,10.0,41,0.00,,,0.00,,2013-02-07 18:23:00,
2013-02-07 11:32:00,44.0,22.0,-100.00,NNE,30,4.0,10.0,41,0.00,,,0.00,,2013-02-07 18:32:00,
2013-02-07 11:40:00,46.0,21.0,-100.00,ENE,68,5.0,10.0,36,0.00,,,0.00,,2013-02-07 18:40:00,
2013-02-07 12:01:00,46.0,21.0,-100.00,ENE,68,5.0,10.0,36,0.00,,,0.00,,2013-02-07 19:01:00,
2013-02-07 12:11:00,46.0,21.0,-100.00,ENE,68,5.0,10.0,36,0.00,,,0.00,,2013-02-07 19:11:00,
2013-02-07 12:22:00,46.0,21.0,-100.00,ENE,68,5.0,10.0,36,0.00,,,0.00,,2013-02-07 19:22:00,
2013-02-07 12:32:00,46.0,21.0,-100.00,ENE,68,5.0,10.0,36,0.00,,,0.00,,2013-02-07 19:32:00,
2013-02-07 12:40:00,51.0,22.0,-100.00,East,91,4.0,11.0,32,0.00,,,0.00,,2013-02-07 19:40:00,
2013-02-07 13:01:00,51.0,22.0,-100.00,East,91,4.0,11.0,32,0.00,,,0.00,,2013-02-07 20:01:00,
2013-02-07 13:11:00,51.0,22.0,-100.00,East,91,4.0,11.0,32,0.00,,,0.00,,2013-02-07 20:11:00,
2013-02-07 13:22:00,51.0,22.0,-100.00,East,91,4.0,11.0,32,0.00,,,0.00,,2013-02-07 20:22:00,
2013-02-07 13:32:00,51.0,22.0,-100.00,East,91,4.0,11.0,32,0.00,,,0.00,,2013-02-07 20:32:00,
2013-02-07 13:40:00,51.0,21.0,-100.00,ENE,70,3.0,8.0,31,0.00,,,0.00,,2013-02-07 20:40:00,
2013-02-07 14:02:00,51.0,21.0,-100.00,ENE,70,3.0,8.0,31,0.00,,,0.00,,2013-02-07 21:02:00,
2013-02-07 14:11:00,51.0,21.0,-100.00,ENE,70,3.0,8.0,31,0.00,,,0.00,,2013-02-07 21:11:00,
2013-02-07 14:21:00,51.0,21.0,-100.00,ENE,70,3.0,8.0,31,0.00,,,0.00,,2013-02-07 21:21:00,
2013-02-07 14:32:00,51.0,21.0,-100.00,ENE,70,3.0,8.0,31,0.00,,,0.00,,2013-02-07 21:32:00,
2013-02-07 14:40:00,52.0,20.0,-100.00,SE,125,3.0,10.0,28,0.00,,,0.00,,2013-02-07 21:40:00,
2013-02-07 15:02:00,52.0,20.0,-100.00,SE,125,3.0,10.0,28,0.00,,,0.00,,2013-02-07 22:02:00,
2013-02-07 15:11:00,52.0,20.0,-100.00,SE,125,3.0,10.0,28,0.00,,,0.00,,2013-02-07 22:11:00,
2013-02-07 15:21:00,52.0,20.0,-100.00,SE,125,3.0,10.0,28,0.00,,,0.00,,2013-02-07 22:21:00,
2013-02-07 15:32:00,52.0,20.0,-100.00,SE,125,3.0,10.0,28,0.00,,,0.00,,2013-02-07 22:32:00,
2013-02-07 15:40:00,49.0,17.0,-100.00,SSE,157,4.0,11.0,28,0.00,,,0.00,,2013-02-07 22:40:00,
2013-02-07 16:01:00,49.0,17.0,-100.00,SSE,157,4.0,11.0,28,0.00,,,0.00,,2013-02-07 23:01:00,
2013-02-07 16:11:00,49.0,17.0,-100.00,SSE,157,4.0,11.0,28,0.00,,,0.00,,2013-02-07 23:11:00,
2013-02-07 16:21:00,49.0,17.0,-100.00,SSE,157,4.0,11.0,28,0.00,,,0.00,,2013-02-07 23:21:00,
2013-02-07 16:32:00,49.0,17.0,-100.00,SSE,157,4.0,11.0,28,0.00,,,0.00,,2013-02-07 23:32:00,
2013-02-07 16:40:00,49.0,17.0,-100.00,SSE,158,5.0,9.0,28,0.00,,,0.00,,2013-02-07 23:40:00,
2013-02-07 17:01:00,49.0,17.0,-100.00,SSE,158,5.0,9.0,28,0.00,,,0.00,,2013-02-08 00:01:00,
2013-02-07 17:11:00,49.0,17.0,-100.00,SSE,158,5.0,9.0,28,0.00,,,0.00,,2013-02-08 00:11:00,
2013-02-07 17:21:00,49.0,17.0,-100.00,SSE,158,5.0,9.0,28,0.00,,,0.00,,2013-02-08 00:21:00,
2013-02-07 17:32:00,49.0,17.0,-100.00,SSE,158,5.0,9.0,28,0.00,,,0.00,,2013-02-08 00:32:00,
2013-02-07 17:40:00,41.0,17.0,-100.00,WSW,248,3.0,9.0,38,0.00,,,0.00,,2013-02-08 00:40:00,
2013-02-07 18:40:00,34.0,15.0,-100.00,WNW,287,2.0,5.0,45,0.00,,,0.00,,2013-02-08 01:40:00,
2013-02-07 19:01:00,34.0,15.0,-100.00,WNW,287,2.0,5.0,45,0.00,,,0.00,,2013-02-08 02:01:00,
2013-02-07 19:32:00,34.0,15.0,-100.00,WNW,287,2.0,5.0,45,0.00,,,0.00,,2013-02-08 02:32:00,
2013-02-07 19:40:00,33.0,17.0,-100.00,WNW,287,2.0,3.0,51,0.00,,,0.00,,2013-02-08 02:40:00,
2013-02-07 20:02:00,33.0,17.0,-100.00,WNW,287,2.0,3.0,51,0.00,,,0.00,,2013-02-08 03:02:00,
2013-02-07 20:12:00,33.0,17.0,-100.00,WNW,287,2.0,3.0,51,0.00,,,0.00,,2013-02-08 03:12:00,
2013-02-07 20:22:00,33.0,17.0,-100.00,WNW,287,2.0,3.0,51,0.00,,,0.00,,2013-02-08 03:22:00,
2013-02-07 20:32:00,33.0,17.0,-100.00,WNW,287,2.0,3.0,51,0.00,,,0.00,,2013-02-08 03:32:00,
2013-02-07 20:40:00,31.0,13.0,-100.00,WNW,285,2.0,4.0,46,0.00,,,-99.99,,2013-02-08 03:40:00,
2013-02-07 21:02:00,31.0,13.0,-100.00,WNW,285,2.0,4.0,46,0.00,,,-99.99,,2013-02-08 04:02:00,
2013-02-07 21:11:00,31.0,13.0,-100.00,WNW,285,2.0,4.0,46,0.00,,,-99.99,,2013-02-08 04:11:00,
2013-02-07 21:21:00,31.0,13.0,-100.00,WNW,285,2.0,4.0,46,0.00,,,-99.99,,2013-02-08 04:21:00,
2013-02-07 21:32:00,31.0,13.0,-100.00,WNW,285,2.0,4.0,46,0.00,,,-99.99,,2013-02-08 04:32:00,
2013-02-07 21:40:00,34.0,15.0,-100.00,WSW,237,4.0,9.0,46,0.00,,,0.00,,2013-02-08 04:40:00,
2013-02-07 22:02:00,34.0,15.0,-100.00,WSW,237,4.0,9.0,46,0.00,,,0.00,,2013-02-08 05:02:00,
2013-02-07 22:11:00,34.0,15.0,-100.00,WSW,237,4.0,9.0,46,0.00,,,0.00,,2013-02-08 05:11:00,
2013-02-07 22:22:00,34.0,15.0,-100.00,WSW,237,4.0,9.0,46,0.00,,,0.00,,2013-02-08 05:22:00,
2013-02-07 22:32:00,34.0,15.0,-100.00,WSW,237,4.0,9.0,46,0.00,,,0.00,,2013-02-08 05:32:00,
2013-02-07 22:40:00,34.0,18.0,-100.00,SW,218,5.0,10.0,52,0.00,,,0.00,,2013-02-08 05:40:00,
2013-02-07 23:01:00,34.0,18.0,-100.00,SW,218,5.0,10.0,52,0.00,,,0.00,,2013-02-08 06:01:00,
2013-02-07 23:11:00,34.0,18.0,-100.00,SW,218,5.0,10.0,52,0.00,,,0.00,,2013-02-08 06:11:00,
2013-02-07 23:21:00,34.0,18.0,-100.00,SW,218,5.0,10.0,52,0.00,,,0.00,,2013-02-08 06:21:00,
2013-02-07 23:32:00,34.0,18.0,-100.00,SW,218,5.0,10.0,52,0.00,,,0.00,,2013-02-08 06:32:00,
2013-02-07 23:40:00,34.0,20.0,-100.00,SSW,199,5.0,11.0,55,0.00,,,0.00,,2013-02-08 06:40:00,